Terminal Aerodrome Forecast
Issued by NWS Caribou, ME

Home | Current Version | Previous Version | Text Only | Print | Product List | Glossary On
Versions: 1 2 3 4 5 6 7 8 9 10 11 12 13 14 15 16
000
FTUS41 KCAR 230520
TAFCAR
TAF
KCAR 230520Z 2306/2406 19008G15KT 6SM -SHRA OVC015
     FM231300 23010KT P6SM BKN025
     FM231600 27009KT P6SM BKN040
     FM231900 26010KT P6SM SCT050
     FM240000 27006KT P6SM SCT060
     FM240300 VRB02KT P6SM SCT120=

USA.gov is the U.S. government's official web portal to all federal, state and local government web resources and services.